Location: Newark
(58.9986°N, 38.5006°E)
Time: 11:49:27
(UTC+00:00)

N. Korean satellite - Pass Details

Date: 08 December 2019
Orbit: 454 x 507 km, 97.2° (Epoch: 27 January)

Event Time Altitude Azimuth Distance (km) Brightness Sun altitude
Rises 14:57:13 0° 191° (S) 2,607 10.7 -16.8°
Reaches altitude 10° 14:59:29 10° 202° (SSW) 1,725 9.9 -17.0°
Maximum altitude 15:02:48 30° 265° (W) 930 8.7 -17.5°
Drops below altitude 10° 15:06:07 10° 328° (NNW) 1,724 9.5 -17.9°
Sets 15:08:24 0° 340° (NNW) 2,606 10.4 -18.2°
